BEIDOU-3S IGSO-1S

Last updated on Wed Nov 20 2024 00:02:41 GMT+0000 (Coordinated Universal Time)

1 40549U 15019A 24323.82321561 -.00000192 00000+0 00000+0 0 9991 2 40549 50.2864 302.3563 0035536 198.6067 310.5206 1.00270031 35302
UTC large
Height (km)
Speed (km/s)
/
Latitude / Longitude
Inclination (degrees)
Orbital Period (minutes)
Azimuth
Elevation
Range (km)
Doppler Factor

Next 0 passes for location: London (51.5072 / 0.1276)

Sorry there are no passes over London.